Погода в Ахтополе

Болгария     42°05′51″N   27°56′07″E
темп.,
°C
ветер,
м/с
пор.,
м/с
влажн.,
%
обл.,
%
осадки,
мм/ч
давл.,
гПа
погр.,
м
24 мая, вт
вт2400:00+12юз1188100 0.0 101330
03:00+11зсз218897 0.0 101330
06:00+13зюз007984 0.0 101338
09:00+17вюв126622 0.0 1014319
12:00+18юв445952 0.0 1014598
15:00+18вюв565974 0.0 1014517
18:00+17юв476644 0.0 1014389
21:00+15юв378363 0.0 1014195
25 мая, ср
ср2500:00+13ю1190100 0.1 101624
03:00+14в2491100 0.3 1017122
06:00+13ююв12905 0.0 101776
09:00+16вюв24745 0.0 1018365
12:00+18в33642 0.0 1019555
15:00+19вюв44627 0.0 1019497
18:00+18юв45675 0.0 1019355
21:00+15юв36835 0.0 1019134
26 мая, чт
чт2600:00+14ю34855 0.0 101978
03:00+13ююз11805 0.0 101936
06:00+14ююз227887 0.0 101846
09:00+19ссв11655 0.0 1019196
12:00+22вюв22573 0.0 1019524
15:00+22в23606 0.1 1018357
18:00+19зсз3594100 4.0 1017206
21:00+16зюз3390100 14.1 101831
27 мая, пт
пт2700:00+16ссв23940 1.1 102052
03:00+16с22934 1.1 102017
06:00+15сз22945 0.0 102025
09:00+18с23885 0.0 1020231
12:00+20всв336873 0.0 1020472
15:00+20в336114 0.0 1019424
18:00+19вюв33662 0.0 1017260
21:00+16ююв228139 0.0 101724
28 мая, сб
сб2800:00+15ююз228184 0.0 101612
03:00+15ююз12753 0.0 101422
06:00+15ююз11781 0.1 101320
09:00+20ююв226494 0.1 1013206
12:00+22вюв325772 0.0 1013508
15:00+22юв34573 0.2 1012307
18:00+20ююв46672 0.8 1010182
21:00+16юз1193100 4.1 101219